Flag for Canada Weather past 2 weeks in Stephenville, Newfoundland and Labrador, Canada

Now
72 °F

Broken clouds.


Feels Like: 75 °F
Forecast: 57 / 70 °F
Wind: 3 mph from South

Location: Stephenville

Current Time: Jul 28, 2015 at 1:10:50 PM

Latest Report: Jul 28, 2015 at 12:30 PM


Visibility: 15 mi

Pressure: 30.00 "Hg

Humidity: 69%

Dew point: 61 °F

Location of StephenvilleLocation

Historic Weather in Stephenville — Graph

°F

Stephenville temperature yesterday

Maximum temperature yesterday: 63 °F (at 3:30 PM)
Minimum temperature yesterday: 46 °F (at 1:30 AM)
Average temperature yesterday: 56 °F

Past Weeks' High & Low Weather Summary

 TemperatureHumidityPressure
High75 °F (Jul 15, 11:30 AM)100% (Jul 14, 1:30 AM)30.17 "Hg (Jul 14, 1:30 AM)
Low45 °F (Jul 26, 2:30 AM)49% (Jul 14, 12:30 PM)29.55 "Hg (Jul 23, 8:30 AM)
Average58 °F80%29.91 "Hg
* Reported Jul 13 11:30 AM — Jul 28 11:30 AM, Stephenville, Weather by CustomWeather, © 2015

Note: Actual official high and low records may vary slightly from our data, if they occured in-between our weather recording intervals... More about our weather records

Advertising

Stephenville weather history for previous 24 hours

 ConditionsComfort  
Time TempWeatherWind HumidityBarometerVisibility
11:30 AM
Tue, Jul 28
68 °FPartly sunny.5 mph78%30.02 "Hg15 mi
10:30 AM64 °FPartly sunny.8 mph83%30.03 "Hg15 mi
9:30 AM63 °FPartly sunny.8 mph88%30.03 "Hg15 mi
8:30 AM61 °FOvercast.8 mph94%30.04 "Hg15 mi
7:30 AM59 °FLow clouds.8 mph94%30.05 "Hg15 mi
6:30 AM59 °FPartly sunny.6 mph94%30.06 "Hg15 mi
5:30 AM57 °FSprinkles. Mostly cloudy.6 mph94%30.07 "Hg15 mi
4:30 AM57 °FSprinkles. Overcast.6 mph94%30.07 "Hg15 mi
3:30 AM57 °FLight rain. Overcast.8 mph94%30.07 "Hg15 mi
2:30 AM57 °FDrizzle. Overcast.5 mph94%30.09 "Hg15 mi
1:30 AM57 °FOvercast.3 mph88%30.11 "Hg15 mi
12:30 AM57 °FSprinkles. Overcast.2 mph88%30.12 "Hg10 mi
11:30 PM
Mon, Jul 27
57 °FSprinkles. Overcast.5 mph88%30.13 "Hg10 mi
10:30 PM57 °FSprinkles. Overcast.5 mph88%30.13 "Hg10 mi
9:30 PM57 °FSprinkles. Overcast.6 mph88%30.13 "Hg10 mi
8:30 PM57 °FOvercast.8 mph88%30.12 "Hg15 mi
7:30 PM57 °FSprinkles. Overcast.15 mph88%30.13 "Hg10 mi
6:30 PM59 °FBroken clouds.17 mph77%30.13 "Hg15 mi
5:30 PM59 °FSprinkles. Mostly cloudy.16 mph82%30.13 "Hg15 mi
4:30 PM61 °FBroken clouds.13 mph77%30.13 "Hg15 mi
3:30 PM63 °FBroken clouds.7 mph73%30.13 "Hg15 mi
2:30 PM61 °FMore clouds than sun.13 mph72%30.15 "Hg15 mi
1:30 PM61 °FPartly sunny.12 mph72%30.16 "Hg15 mi
Weather by CustomWeather, © 2015

See weather overviewHow to use our weather pages